TimeMDT,TemperatureF,Dew PointF,Humidity,Sea Level PressureIn,VisibilityMPH,Wind Direction,Wind SpeedMPH,Gust SpeedMPH,PrecipitationIn,Events,Conditions,WindDirDegrees,DateUTC
12:53 AM,41.0,28.9,62,29.97,10.0,WSW,9.2,-,N/A,,Clear,240,2012-10-16 06:53:00
1:53 AM,41.0,28.9,62,29.94,10.0,SW,10.4,-,N/A,,Clear,220,2012-10-16 07:53:00
2:53 AM,44.1,28.9,55,29.91,10.0,SW,9.2,-,N/A,,Clear,220,2012-10-16 08:53:00
4:53 AM,44.1,28.9,55,29.89,10.0,SW,12.7,-,N/A,,Clear,220,2012-10-16 10:53:00
6:53 AM,42.1,30.0,62,29.89,10.0,SW,11.5,-,N/A,,Clear,220,2012-10-16 12:53:00
7:53 AM,42.1,30.0,62,29.90,10.0,SW,13.8,-,N/A,,Clear,230,2012-10-16 13:53:00
8:53 AM,44.1,30.9,60,29.90,10.0,SW,15.0,-,N/A,,Partly Cloudy,230,2012-10-16 14:53:00
9:53 AM,48.0,32.0,54,29.86,10.0,SSW,11.5,-,N/A,,Partly Cloudy,210,2012-10-16 15:53:00
10:53 AM,55.9,32.0,40,29.81,10.0,SW,19.6,-,N/A,,Scattered Clouds,220,2012-10-16 16:53:00
11:53 AM,60.1,34.0,38,29.75,10.0,WSW,39.1,49.5,N/A,,Mostly Cloudy,240,2012-10-16 17:53:00
12:53 PM,59.0,35.1,41,29.73,10.0,WSW,36.8,49.5,N/A,,Scattered Clouds,250,2012-10-16 18:53:00
1:53 PM,57.9,33.1,39,29.70,10.0,West,26.5,36.8,0.00,,Overcast,260,2012-10-16 19:53:00
2:53 PM,59.0,34.0,39,29.65,10.0,WSW,32.2,40.3,0.00,,Mostly Cloudy,240,2012-10-16 20:53:00
3:53 PM,57.9,35.1,42,29.66,9.0,West,32.2,43.7,N/A,Thunderstorm,Thunderstorm,260,2012-10-16 21:53:00
4:06 PM,46.4,42.8,87,29.87,4.0,NW,26.5,41.4,0.03,Rain-Thunderstorm,Light Rain,310,2012-10-16 22:06:00
4:20 PM,48.2,44.6,87,29.87,10.0,NW,23.0,31.1,0.03,Rain,Light Rain,310,2012-10-16 22:20:00
4:53 PM,46.0,43.0,89,29.76,6.0,NW,21.9,38.0,0.04,Rain,Rain,310,2012-10-16 22:53:00
5:01 PM,44.6,42.8,93,29.88,5.0,NW,26.5,34.5,0.01,Rain,Light Rain,320,2012-10-16 23:01:00
5:53 PM,43.0,39.9,89,29.84,4.0,WNW,18.4,27.6,0.06,Rain,Light Rain,300,2012-10-16 23:53:00
7:53 PM,41.0,35.1,79,29.88,10.0,WSW,8.1,-,0.00,,Mostly Cloudy,240,2012-10-17 01:53:00
8:53 PM,39.0,28.0,65,29.88,10.0,WSW,17.3,26.5,N/A,,Clear,250,2012-10-17 02:53:00
9:53 PM,37.0,23.0,57,29.88,10.0,West,20.7,-,N/A,,Clear,260,2012-10-17 03:53:00
10:53 PM,37.0,17.1,44,29.88,10.0,SW,16.1,-,N/A,,Clear,220,2012-10-17 04:53:00
11:53 PM,35.1,19.9,54,29.88,10.0,WSW,17.3,-,N/A,,Clear,250,2012-10-17 05:53:00